�N����,����,����,����,����,�C��,���x,�~����,�S�V����,�ő�u�ԕ���,,,,,
,,,,,,,,,����,����,����,�N��,,
yyyy/mm/dd,hh:mm:ss,(16),16����,m/s,��,%,mm,KW/�u,(16),16����,m/s,Time,,
2015/10/1,1:00:00,13,���k��,2.5,5.5,95,0,0,13,���k��,4.1,25,,
2015/10/1,2:00:00,13,���k��,3,5.8,91.6,0,0,12,��,4.9,30,,
2015/10/1,3:00:00,12,��,1.7,5.2,95.9,0,0,13,���k��,4.6,24,,
2015/10/1,4:00:00,14,�k��,1.2,3.2,95.5,0,0,13,���k��,4.2,36,,
2015/10/1,5:00:00,12,��,2.2,2.6,99.9,0,0,13,���k��,2.8,57,,
2015/10/1,6:00:00,13,���k��,2,4.5,97.9,0,0.03,14,�k��,3.2,18,,
2015/10/1,7:00:00,12,��,2.5,8.3,81.8,0,0.19,13,���k��,3.6,45,,
2015/10/1,8:00:00,12,��,1.9,12.9,71,0,0.4,13,���k��,3.5,19,,
2015/10/1,9:00:00,6,�쓌,1.3,15.6,67.9,0,0.58,7,��쓌,2.9,45,,
2015/10/1,10:00:00,7,��쓌,2,16.3,69.2,0,0.64,8,��,3.7,51,,
2015/10/1,11:00:00,5,���쓌,2.4,15.8,69.7,0,0.59,4,��,4.4,37,,
2015/10/1,12:00:00,5,���쓌,2.6,14.9,70.8,0,0.69,6,�쓌,5.8,30,,
2015/10/1,13:00:00,4,��,1.7,15.3,75,0,0.37,6,�쓌,5.1,25,,
2015/10/1,14:00:00,9,��쐼,3.6,16.5,66.7,0,0.53,8,��,6,53,,
2015/10/1,15:00:00,8,��,4.1,16.8,73.4,0,0.33,8,��,9.4,53,,
2015/10/1,16:00:00,8,��,4.6,15.9,74.3,0,0.15,8,��,9.1,24,,
2015/10/1,17:00:00,7,��쓌,2.5,15.3,73.4,0,0.04,9,��쐼,8.2,7,,
2015/10/1,18:00:00,8,��,4.7,15.4,83,0,0,8,��,10.6,14,,
2015/10/1,19:00:00,8,��,3.3,15.9,89.9,0,0,7,��쓌,8.7,1,,
2015/10/1,20:00:00,8,��,3.7,16.4,89.1,0,0,7,��쓌,7.4,10,,
2015/10/1,21:00:00,7,��쓌,3.3,16.2,93.8,0,0,7,��쓌,7.8,34,,
2015/10/1,22:00:00,7,��쓌,6,16.6,94.8,0.5,0,9,��쐼,12.3,39,,
2015/10/1,23:00:00,8,��,7.8,17.2,97.6,2.5,0,7,��쓌,16.6,51,,
2015/10/1,0:00:00,8,��,6.5,16.6,96.9,1.5,0,7,��쓌,17.4,40,,
2015/10/2,1:00:00,8,��,7,16.1,97.9,4,0,7,��쓌,17.5,13,,
2015/10/2,2:00:00,8,��,7.9,16.9,98.3,1.5,0,7,��쓌,15.7,40,,
2015/10/2,3:00:00,8,��,7.6,17,98,1,0,8,��,17.4,26,,
2015/10/2,4:00:00,9,��쐼,9.4,18.1,97.8,1,0,8,��,19.4,39,,
2015/10/2,5:00:00,8,��,5.4,18.7,96.6,0.5,0,9,��쐼,18.6,8,,
2015/10/2,6:00:00,9,��쐼,5.9,19.8,77.2,0,0.01,10,�쐼,15.2,31,,
2015/10/2,7:00:00,11,���쐼,10,19.9,62.4,0,0.16,11,���쐼,15,53,,
2015/10/2,8:00:00,10,�쐼,10.2,19.4,45.9,0.5,0.42,12,��,16.8,29,,
2015/10/2,9:00:00,11,���쐼,7.4,17.2,54.7,0,0.23,11,���쐼,18,11,,
2015/10/2,10:00:00,12,��,5.2,16.2,58.3,0,0.19,11,���쐼,16.4,7,,
2015/10/2,11:00:00,12,��,8.2,15.9,48.5,0,0.4,11,���쐼,17.8,20,,
2015/10/2,12:00:00,12,��,12.7,16.8,35.5,0,0.7,12,��,22.9,35,,
2015/10/2,13:00:00,12,��,12.7,17.1,34.9,0,0.58,12,��,22.1,13,,
2015/10/2,14:00:00,12,��,14.1,16.7,33.7,0,0.64,12,��,22.7,20,,
2015/10/2,15:00:00,12,��,11.7,15.9,36,0,0.43,12,��,20.6,37,,
2015/10/2,16:00:00,12,��,7.6,15,39.7,0,0.12,12,��,19.2,46,,
2015/10/2,17:00:00,12,��,6.2,14.2,41.9,0,0.06,12,��,17.4,37,,
2015/10/2,18:00:00,11,���쐼,4.1,13.9,47.1,0,0,11,���쐼,12.9,33,,
2015/10/2,19:00:00,6,�쓌,2,12.1,64.6,0,0,12,��,14.4,21,,
2015/10/2,20:00:00,4,��,2.3,12.3,69.1,0,0,8,��,5.8,28,,
2015/10/2,21:00:00,11,���쐼,4,13.9,57.3,0,0,12,��,8.6,54,,
2015/10/2,22:00:00,11,���쐼,11.3,15.2,49.3,0,0,10,�쐼,17.4,56,,
2015/10/2,23:00:00,11,���쐼,8.8,15.6,53.1,0,0,12,��,19.1,32,,
2015/10/2,0:00:00,9,��쐼,3.4,13.4,73.6,0,0,11,���쐼,15.1,6,,
2015/10/3,1:00:00,10,�쐼,2.7,16.3,62.3,0,0,10,�쐼,13.3,14,,
2015/10/3,2:00:00,10,�쐼,4.8,15.8,64.6,0,0,11,���쐼,16.5,11,,
2015/10/3,3:00:00,13,���k��,3.4,16.3,65,0,0,10,�쐼,10.8,43,,
2015/10/3,4:00:00,7,��쓌,2,13.5,79.9,0,0,12,��,8.6,2,,
2015/10/3,5:00:00,11,���쐼,4,13.9,71.1,0,0,11,���쐼,7.8,54,,
2015/10/3,6:00:00,11,���쐼,5.8,15.6,60.4,0,0.02,10,�쐼,10.6,52,,
2015/10/3,7:00:00,11,���쐼,4.4,16.9,56.5,0,0.18,11,���쐼,8.5,12,,
2015/10/3,8:00:00,11,���쐼,7.6,18.2,55.1,0,0.39,10,�쐼,12.4,54,,
2015/10/3,9:00:00,11,���쐼,8.7,19.4,50,0,0.61,10,�쐼,14.6,44,,
2015/10/3,10:00:00,10,�쐼,6.5,16.8,67.6,0,0.62,11,���쐼,13.6,7,,
2015/10/3,11:00:00,10,�쐼,6.2,18.8,55.8,0,0.74,10,�쐼,10.7,26,,
2015/10/3,12:00:00,11,���쐼,8.2,17.2,55,0,0.7,11,���쐼,15.7,25,,
2015/10/3,13:00:00,10,�쐼,3.6,17,62.5,0,0.29,10,�쐼,11.3,0,,
2015/10/3,14:00:00,12,��,3.8,16.8,64.3,0,0.29,11,���쐼,10,14,,
2015/10/3,15:00:00,8,��,1.5,15.9,68.1,0,0.15,12,��,6.8,7,,
2015/10/3,16:00:00,11,���쐼,5,15.8,59.3,0,0.14,10,�쐼,10.1,39,,
2015/10/3,17:00:00,8,��,2.1,13,74.4,0,0.07,11,���쐼,6.9,5,,
2015/10/3,18:00:00,8,��,2.1,12.3,71.6,0,0,8,��,3.9,25,,
2015/10/3,19:00:00,8,��,2.3,10.3,77.8,0,0,8,��,3.3,33,,
2015/10/3,20:00:00,10,�쐼,1.7,8,88,0,0,9,��쐼,3.4,13,,
2015/10/3,21:00:00,11,���쐼,3.4,8.6,84.5,0,0,12,��,5.7,59,,
2015/10/3,22:00:00,11,���쐼,4.8,11.5,56,0,0,11,���쐼,8.1,50,,
2015/10/3,23:00:00,11,���쐼,3.4,9.2,67.2,0,0,11,���쐼,6.8,19,,
2015/10/3,0:00:00,11,���쐼,4.5,10.1,61.8,0,0,11,���쐼,7.4,29,,
2015/10/4,1:00:00,11,���쐼,3.7,9.6,64.2,0,0,10,�쐼,7.3,8,,
2015/10/4,2:00:00,11,���쐼,3.2,8.8,67.5,0,0,11,���쐼,6.7,3,,
2015/10/4,3:00:00,13,���k��,0.5,5.7,79,0,0,11,���쐼,7.1,17,,
2015/10/4,4:00:00,13,���k��,1.5,4.9,82,0,0,11,���쐼,4,30,,
2015/10/4,5:00:00,15,�k�k��,1,1.7,95.6,0,0,12,��,2.8,59,,
2015/10/4,6:00:00,12,��,1.5,2.7,96.4,0,0.03,11,���쐼,17.6,32,,
2015/10/4,7:00:00,12,��,1.5,7.3,82.4,0,0.19,13,���k��,4.2,18,,
2015/10/4,8:00:00,12,�É�,0.1,11.8,66.2,0,0.39,12,��,2.2,38,,
2015/10/4,9:00:00,10,�쐼,2.5,14.4,46,0,0.57,10,�쐼,4.2,56,,
2015/10/4,10:00:00,16,�k,1.9,15.1,38.7,0,0.68,15,�k�k��,3.9,59,,
2015/10/4,11:00:00,4,��,2.1,15,48.7,0,0.75,1,�k�k��,5.3,32,,
2015/10/4,12:00:00,3,���k��,2,14.3,56.5,0,0.6,1,�k�k��,5.6,25,,
2015/10/4,13:00:00,7,��쓌,1.7,13.7,58.6,0,0.24,6,�쓌,5.4,16,,
2015/10/4,14:00:00,9,��쐼,1.3,14.6,61.4,0,0.18,7,��쓌,2.7,0,,
2015/10/4,15:00:00,8,��,2.2,15,45.9,0,0.36,7,��쓌,4.2,42,,
2015/10/4,16:00:00,8,��,1.8,14.2,56.2,0,0.29,7,��쓌,4.1,2,,
2015/10/4,17:00:00,11,���쐼,1.4,8.7,84.1,0,0.08,9,��쐼,2.4,39,,
2015/10/4,18:00:00,12,��,1.5,5.6,94.4,0,0,12,��,2.3,14,,
2015/10/4,19:00:00,13,���k��,1.3,4.8,97.4,0,0,12,��,2,49,,
2015/10/4,20:00:00,14,�k��,1.4,4.2,98.7,0,0,13,���k��,2.4,44,,
2015/10/4,21:00:00,13,���k��,3,6.1,89.4,0,0,13,���k��,4.8,48,,
2015/10/4,22:00:00,13,���k��,1.6,3,96.9,0,0,14,�k��,3.6,2,,
2015/10/4,23:00:00,13,���k��,2.5,5.6,91.3,0,0,13,���k��,4.3,51,,
2015/10/4,0:00:00,14,�k��,0.4,3.1,96.1,0,0,12,��,3.9,9,,
2015/10/5,1:00:00,13,���k��,0.9,1.8,98.3,0,0,12,��,3,35,,
2015/10/5,2:00:00,13,���k��,3.1,4.1,96.7,0,0,13,���k��,4.7,56,,
2015/10/5,3:00:00,12,��,2,2.9,97.3,0,0,16,�k,4.5,13,,
2015/10/5,4:00:00,12,��,2.5,3.1,92.9,0,0,6,�쓌,4.7,50,,
2015/10/5,5:00:00,13,���k��,2.5,4.6,90.6,0,0,3,���k��,4.4,44,,
2015/10/5,6:00:00,13,���k��,2.5,5.3,88.5,0,0.02,13,���k��,4.8,39,,
2015/10/5,7:00:00,12,��,2,6.7,88.4,0,0.14,13,���k��,4.7,33,,
2015/10/5,8:00:00,14,�k��,0.4,9.7,81.7,0,0.16,13,���k��,3.5,26,,
2015/10/5,9:00:00,14,�k��,1.9,12,75.7,0,0.26,15,�k�k��,3.7,59,,
2015/10/5,10:00:00,3,���k��,1.5,13.7,65.2,0,0.38,3,���k��,3.3,59,,
2015/10/5,11:00:00,4,��,3.2,15.3,60.7,0,0.63,4,��,4.9,52,,
2015/10/5,12:00:00,6,�쓌,3,13.6,71,0,0.6,5,���쓌,5.4,47,,
2015/10/5,13:00:00,6,�쓌,2.9,13,69.6,0,0.51,6,�쓌,5.6,46,,
2015/10/5,14:00:00,8,��,2.5,13.2,72.4,0,0.3,6,�쓌,4.6,4,,
2015/10/5,15:00:00,9,��쐼,2.7,13.2,70.5,0,0.35,9,��쐼,5.2,26,,
2015/10/5,16:00:00,7,��쓌,0.6,12.4,78.9,0,0.13,8,��,3.4,1,,
2015/10/5,17:00:00,4,�É�,0.2,10,92.4,0,0.05,10,�쐼,1.8,38,,
2015/10/5,18:00:00,1,�É�,0,6.9,98.6,0,0,12,��,1.4,20,,
2015/10/5,19:00:00,12,��,2,5.3,99.5,0,0,12,��,2.6,46,,
2015/10/5,20:00:00,13,���k��,1.6,3.8,99.4,0,0,12,��,2.7,3,,
2015/10/5,21:00:00,13,���k��,2,4.3,100,0,0,12,��,2.8,6,,
2015/10/5,22:00:00,12,��,1.4,3.2,99.9,0,0,13,���k��,2.8,2,,
2015/10/5,23:00:00,13,���k��,1.6,3.9,99.8,0,0,14,�k��,3.3,54,,
2015/10/5,0:00:00,12,��,2.1,3.9,99.3,0,0,12,��,3.1,47,,
2015/10/6,1:00:00,13,���k��,2.1,5.3,97.8,0,0,14,�k��,4.1,56,,
2015/10/6,2:00:00,13,���k��,2,5.2,96.7,0,0,14,�k��,4.4,33,,
2015/10/6,3:00:00,13,���k��,1.8,3.9,98.4,0,0,14,�k��,3.9,30,,
2015/10/6,4:00:00,13,���k��,2,3.7,99.5,0,0,14,�k��,2.9,51,,
2015/10/6,5:00:00,14,�k��,2,4.8,94.2,0,0,14,�k��,4,44,,
2015/10/6,6:00:00,14,�k��,2.2,5.5,91.5,0,0.03,14,�k��,4.4,37,,
2015/10/6,7:00:00,14,�k��,2,7.7,86.6,0,0.18,14,�k��,4.4,18,,
2015/10/6,8:00:00,14,�k��,1.5,10.9,79.1,0,0.38,14,�k��,3.1,57,,
2015/10/6,9:00:00,9,��쐼,0.5,14.9,76.2,0,0.55,14,�k��,3.2,23,,
2015/10/6,10:00:00,5,���쓌,2.5,14.6,70.4,0,0.67,5,���쓌,3.8,54,,
2015/10/6,11:00:00,5,���쓌,3.2,15.7,67.3,0,0.75,5,���쓌,5.3,23,,
2015/10/6,12:00:00,5,���쓌,3.4,15,66.8,0,0.76,5,���쓌,5.7,4,,
2015/10/6,13:00:00,5,���쓌,3.2,15.1,64.7,0,0.72,5,���쓌,5.3,4,,
2015/10/6,14:00:00,6,�쓌,2.6,14.3,76.7,0,0.62,5,���쓌,5.3,21,,
2015/10/6,15:00:00,6,�쓌,1.9,14.2,82.1,0,0.47,5,���쓌,4.1,9,,
2015/10/6,16:00:00,8,��,1.4,13.1,84.8,0,0.27,7,��쓌,2.9,18,,
2015/10/6,17:00:00,9,��쐼,0.4,9.7,96.1,0,0.08,7,��쓌,2.2,0,,
2015/10/6,18:00:00,12,��,0.3,6.2,98.9,0,0,9,��쐼,1.1,24,,
2015/10/6,19:00:00,13,���k��,0.9,4.5,99.8,0,0,12,��,1.7,36,,
2015/10/6,20:00:00,12,��,1.1,4.9,100,0,0,12,��,2.3,36,,
2015/10/6,21:00:00,13,���k��,2,6.8,100,0,0,14,�k��,2.9,58,,
2015/10/6,22:00:00,13,���k��,1.8,5.2,100,0,0,14,�k��,2.9,2,,
2015/10/6,23:00:00,13,���k��,1.5,5.2,100,0,0,13,���k��,3.1,18,,
2015/10/6,0:00:00,13,���k��,2.2,6,100,0,0,13,���k��,3.5,56,,
2015/10/7,1:00:00,14,�k��,2.8,6.2,98,0,0,14,�k��,4.9,46,,
2015/10/7,2:00:00,14,�k��,2.6,6,97.6,0,0,13,���k��,5.1,6,,
2015/10/7,3:00:00,14,�k��,3,5.9,98.5,0,0,13,���k��,4.9,35,,
2015/10/7,4:00:00,14,�k��,3.1,5.6,98.3,0,0,14,�k��,5.2,28,,
2015/10/7,5:00:00,13,���k��,1,5,98.5,0,0,13,���k��,5.3,5,,
2015/10/7,6:00:00,13,���k��,3.2,5.6,98.2,0,0.02,13,���k��,4.5,58,,
2015/10/7,7:00:00,14,�k��,2.8,7.5,91.3,0,0.17,13,���k��,4.8,56,,
2015/10/7,8:00:00,14,�k��,2.5,11.1,88,0,0.34,13,���k��,4.3,14,,
2015/10/7,9:00:00,2,�k��,4,13.8,79.4,0,0.57,1,�k�k��,6.7,51,,
2015/10/7,10:00:00,3,���k��,3.5,15.4,70.3,0,0.67,1,�k�k��,7,21,,
2015/10/7,11:00:00,4,��,6.2,15.1,71.1,0,0.69,4,��,8.9,57,,
2015/10/7,12:00:00,4,��,4.6,15.8,67.6,0,0.77,4,��,8.6,0,,
2015/10/7,13:00:00,4,��,5,16.3,64.1,0,0.73,3,���k��,7.1,59,,
2015/10/7,14:00:00,3,���k��,5.4,15.8,61.5,0,0.59,4,��,8.9,53,,
2015/10/7,15:00:00,3,���k��,3.2,15.4,67.4,0,0.45,4,��,8.1,2,,
2015/10/7,16:00:00,3,���k��,4.4,14.2,68.7,0,0.29,3,���k��,7.1,22,,
2015/10/7,17:00:00,2,�k��,2.5,12.4,78.9,0,0.05,3,���k��,5.5,5,,
2015/10/7,18:00:00,2,�k��,2.7,12.1,79.6,0,0,1,�k�k��,4.9,34,,
2015/10/7,19:00:00,14,�k��,1.6,9.9,86.8,0,0,2,�k��,5.2,1,,
2015/10/7,20:00:00,16,�k,2.7,11.4,68.2,0,0,1,�k�k��,7.7,31,,
2015/10/7,21:00:00,15,�k�k��,3.4,11.2,68.1,0,0,15,�k�k��,7.4,52,,
2015/10/7,22:00:00,15,�k�k��,3.8,10.9,71.6,0,0,15,�k�k��,8.8,12,,
2015/10/7,23:00:00,16,�k,4.1,10.8,75.3,0,0,1,�k�k��,10.4,49,,
2015/10/7,0:00:00,15,�k�k��,4.9,10.9,75.8,0,0,16,�k,9.8,55,,
2015/10/8,1:00:00,16,�k,4.3,10.3,83,0,0,1,�k�k��,11,23,,
2015/10/8,2:00:00,14,�k��,4.2,9,92.7,0.5,0,16,�k,9.2,0,,
2015/10/8,3:00:00,14,�k��,5.2,8.8,94.4,1.5,0,15,�k�k��,9.5,1,,
2015/10/8,4:00:00,14,�k��,4.7,8.9,93.8,2,0,13,���k��,10.9,35,,
2015/10/8,5:00:00,14,�k��,5.7,8.5,93.9,2,0,14,�k��,13.1,35,,
2015/10/8,6:00:00,15,�k�k��,6.6,8.5,93.6,4.5,0,15,�k�k��,15,46,,
2015/10/8,7:00:00,14,�k��,7.6,8.2,94.1,6,0.01,12,��,17.1,24,,
2015/10/8,8:00:00,14,�k��,7.6,8.1,93.4,3,0.02,15,�k�k��,16.8,40,,
2015/10/8,9:00:00,15,�k�k��,8.2,8.2,93.3,6.5,0.04,15,�k�k��,20.1,33,,
2015/10/8,10:00:00,15,�k�k��,7.5,8.9,93.2,5.5,0.06,1,�k�k��,17.2,6,,
2015/10/8,11:00:00,15,�k�k��,6.2,9.1,94.2,3,0.08,4,��,14.5,26,,
2015/10/8,12:00:00,15,�k�k��,6.5,9.7,93.1,6.5,0.08,1,�k�k��,18.1,59,,
2015/10/8,13:00:00,15,�k�k��,9.3,9.7,91,5,0.06,1,�k�k��,20.1,36,,
2015/10/8,14:00:00,15,�k�k��,7.1,9.7,92.3,6,0.03,15,�k�k��,22.1,46,,
2015/10/8,15:00:00,15,�k�k��,8,9.4,92.1,5.5,0.02,14,�k��,19.8,11,,
2015/10/8,16:00:00,14,�k��,7.5,9.3,92.3,7,0.01,10,�쐼,17.2,50,,
2015/10/8,17:00:00,14,�k��,7.5,9.2,92.4,5.5,0.01,14,�k��,19.2,6,,
2015/10/8,18:00:00,14,�k��,6.8,9.5,88.7,2,0,15,�k�k��,17.2,13,,
2015/10/8,19:00:00,14,�k��,6.7,10.4,77.5,0,0,14,�k��,16.5,47,,
2015/10/8,20:00:00,14,�k��,6.8,11.2,68.5,0,0,14,�k��,15.4,38,,
2015/10/8,21:00:00,14,�k��,6.7,12.1,62.9,0,0,14,�k��,15.6,15,,
2015/10/8,22:00:00,14,�k��,3.2,12.1,61.8,0,0,14,�k��,15.2,11,,
2015/10/8,23:00:00,14,�k��,4,12,66,0,0,14,�k��,10.1,10,,
2015/10/8,0:00:00,14,�k��,3.7,11.2,67.8,0,0,15,�k�k��,7.8,55,,
2015/10/9,1:00:00,14,�k��,3.2,11,69.6,0,0,14,�k��,8.3,1,,
2015/10/9,2:00:00,14,�k��,3,11.2,69.2,0,0,14,�k��,7.4,23,,
2015/10/9,3:00:00,14,�k��,3.9,11.2,68.9,0,0,4,��,8.1,33,,
2015/10/9,4:00:00,14,�k��,3.5,10.6,70.5,0,0,13,���k��,7.4,48,,
2015/10/9,5:00:00,13,���k��,3.1,10,73.4,0,0,14,�k��,7.4,25,,
2015/10/9,6:00:00,12,��,3.3,9.2,84.2,0,0.01,9,��쐼,5.5,25,,
2015/10/9,7:00:00,13,���k��,2,11.5,71.2,0,0.1,12,��,4.9,0,,
2015/10/9,8:00:00,14,�k��,2.6,12.6,67.3,0,0.37,15,�k�k��,6.2,47,,
2015/10/9,9:00:00,13,���k��,2.5,13.9,68.5,0,0.25,13,���k��,6.1,37,,
2015/10/9,10:00:00,14,�k��,2.3,15,66.2,0,0.3,12,��,6.5,9,,
2015/10/9,11:00:00,9,��쐼,2.5,14.9,65.3,0,0.42,9,��쐼,4.1,44,,
2015/10/9,12:00:00,9,��쐼,2.6,14.7,67.8,0,0.34,9,��쐼,4.9,8,,
2015/10/9,13:00:00,6,�쓌,0.4,16.7,65.7,0,0.36,7,��쓌,4.8,11,,
2015/10/9,14:00:00,14,�É�,0.1,16.3,66.5,0,0.21,15,�k�k��,2.8,10,,
2015/10/9,15:00:00,13,���k��,1.8,16,66.1,0,0.16,11,���쐼,4.5,56,,
2015/10/9,16:00:00,11,���쐼,4.2,16,58.7,0,0.08,11,���쐼,7.4,55,,
2015/10/9,17:00:00,11,���쐼,5.7,14.7,60.6,0,0.07,10,�쐼,9.9,6,,
2015/10/9,18:00:00,11,���쐼,3.9,12.9,68.1,0,0,11,���쐼,8.9,19,,
2015/10/9,19:00:00,15,�k�k��,1.2,10.8,77,0,0,11,���쐼,6.8,0,,
2015/10/9,20:00:00,5,���쓌,0.6,8.6,86.1,0,0,2,�k��,3,2,,
2015/10/9,21:00:00,13,���k��,1.1,7.7,90.1,0,0,11,���쐼,3.1,58,,
2015/10/9,22:00:00,14,�k��,1.2,6.3,92.6,0,0,14,�k��,4.3,55,,
2015/10/9,23:00:00,12,��,2.2,5.3,96.5,0,0,13,���k��,3.8,47,,
2015/10/9,0:00:00,12,��,1.9,6,94.6,0,0,13,���k��,3.5,33,,
2015/10/10,1:00:00,10,�쐼,1.8,4.9,95.1,0,0,12,��,3.5,22,,
2015/10/10,2:00:00,2,�k��,1.3,5.4,95.6,0,0,12,��,5.3,27,,
2015/10/10,3:00:00,1,�k�k��,0.9,5.9,96.5,0,0,13,���k��,3.3,11,,
2015/10/10,4:00:00,13,���k��,1.7,5.5,96.2,0,0,13,���k��,4.5,21,,
2015/10/10,5:00:00,9,��쐼,3.2,12.4,82,0,0,9,��쐼,5.3,59,,
2015/10/10,6:00:00,9,��쐼,3.2,13.8,77.5,0,0.02,9,��쐼,6.3,23,,
2015/10/10,7:00:00,10,�쐼,3.3,16.1,67.2,0,0.18,10,�쐼,5.7,59,,
2015/10/10,8:00:00,10,�쐼,6.5,18.5,50.7,0,0.37,11,���쐼,9.9,56,,
2015/10/10,9:00:00,10,�쐼,9.1,19.5,36.5,0,0.55,11,���쐼,14.5,56,,
2015/10/10,10:00:00,10,�쐼,8.3,19.8,37.5,0,0.67,10,�쐼,15.1,6,,
2015/10/10,11:00:00,10,�쐼,5.8,20,39.7,0,0.73,10,�쐼,11,32,,
2015/10/10,12:00:00,11,���쐼,4.7,20.2,31.8,0,0.75,10,�쐼,12.6,23,,
2015/10/10,13:00:00,11,���쐼,4.3,20.3,33.6,0,0.71,10,�쐼,9.5,7,,
2015/10/10,14:00:00,10,�쐼,3.7,19.8,36.1,0,0.61,12,��,10,2,,
2015/10/10,15:00:00,10,�쐼,1.6,19.3,39.1,0,0.46,12,��,10,40,,
2015/10/10,16:00:00,11,���쐼,3.4,16.6,46.5,0,0.26,11,���쐼,7.2,3,,
2015/10/10,17:00:00,9,��쐼,2.7,13.6,55.6,0,0.06,11,���쐼,5.8,4,,
2015/10/10,18:00:00,13,���k��,0.9,8.9,79.2,0,0,12,��,3.3,54,,
2015/10/10,19:00:00,11,���쐼,0.8,6.7,91.3,0,0,11,���쐼,3,32,,
2015/10/10,20:00:00,12,��,1.4,4.4,95,0,0,12,��,2.7,35,,
2015/10/10,21:00:00,15,�k�k��,1.5,6.6,85.6,0,0,1,�k�k��,3.5,53,,
2015/10/10,22:00:00,12,��,2.2,4.2,90.7,0,0,12,��,3.6,43,,
2015/10/10,23:00:00,12,��,1.8,4.3,94.1,0,0,12,��,4.1,28,,
2015/10/10,0:00:00,13,���k��,2.3,4.2,94.7,0,0,12,��,3.9,43,,
2015/10/11,1:00:00,13,���k��,1.4,3.9,94.1,0,0,12,��,4.2,48,,
2015/10/11,2:00:00,12,��,2.2,3.3,96.8,0,0,13,���k��,3.2,10,,
2015/10/11,3:00:00,13,���k��,2.3,4.2,95.1,0,0,5,���쓌,3.6,49,,
2015/10/11,4:00:00,13,���k��,1.5,4.2,95,0,0,12,��,2.9,2,,
2015/10/11,5:00:00,13,���k��,1.9,4,96.1,0,0,12,��,3.4,35,,
2015/10/11,6:00:00,13,���k��,1.5,5,94.9,0,0.01,13,���k��,3.3,8,,
2015/10/11,7:00:00,12,��,1.3,6.7,93.9,0,0.06,12,��,2.5,32,,
2015/10/11,8:00:00,14,�k��,2.2,9.2,84,0,0.12,14,�k��,3,55,,
2015/10/11,9:00:00,14,�k��,1.9,11.4,85,0,0.22,14,�k��,4.3,37,,
2015/10/11,10:00:00,13,���k��,1.4,11.6,81.4,0,0.16,13,���k��,3.6,3,,
2015/10/11,11:00:00,9,��쐼,0.7,12.1,86,0,0.14,5,���쓌,2.6,45,,
2015/10/11,12:00:00,5,���쓌,2.5,11.6,91.7,0,0.13,5,���쓌,3.2,57,,
2015/10/11,13:00:00,14,�É�,0.1,11.6,95.2,0,0.06,9,��쐼,2.9,30,,
2015/10/11,14:00:00,11,���쐼,0.9,11.4,94.5,0,0.1,12,��,2.8,40,,
2015/10/11,15:00:00,5,���쓌,0.8,12.6,96.6,0,0.11,7,��쓌,2.4,45,,
2015/10/11,16:00:00,8,��,2.5,14.5,99.1,0,0.05,8,��,6.8,51,,
2015/10/11,17:00:00,9,��쐼,2.5,14.8,99.6,0,0.01,7,��쓌,7.7,34,,
2015/10/11,18:00:00,14,�k��,2.4,13.6,98.3,0,0,8,��,5.8,6,,
2015/10/11,19:00:00,10,�쐼,2,12.2,98.6,0.5,0,14,�k��,4,11,,
2015/10/11,20:00:00,10,�쐼,2.9,11.8,96.3,0,0,12,��,8,26,,
2015/10/11,21:00:00,10,�쐼,3.5,13.5,74.7,0,0,11,���쐼,6.2,46,,
2015/10/11,22:00:00,10,�쐼,5.7,13.7,79,0,0,11,���쐼,10.7,57,,
2015/10/11,23:00:00,11,���쐼,9,14.1,63.5,0,0,10,�쐼,13.5,53,,
2015/10/11,0:00:00,11,���쐼,6.6,13.1,60.5,0,0,11,���쐼,15.3,13,,
2015/10/12,1:00:00,10,�쐼,6.5,12.9,60.3,0,0,10,�쐼,13.9,29,,
2015/10/12,2:00:00,10,�쐼,6.3,12.7,56.9,0,0,10,�쐼,12.3,57,,
2015/10/12,3:00:00,11,���쐼,4.8,11.8,61.2,0,0,10,�쐼,14.5,13,,
2015/10/12,4:00:00,11,���쐼,4.7,11.6,60.5,0,0,10,�쐼,13.6,19,,
2015/10/12,5:00:00,11,���쐼,7.4,11.6,53.7,0,0,11,���쐼,12.5,24,,
2015/10/12,6:00:00,12,��,6.7,12.5,53.3,0,0.01,11,���쐼,14.3,25,,
2015/10/12,7:00:00,11,���쐼,4.1,12.7,56.2,0,0.08,12,��,11.3,0,,
2015/10/12,8:00:00,11,���쐼,2.5,14.9,52.7,0,0.25,11,���쐼,7.4,35,,
2015/10/12,9:00:00,10,�쐼,3.4,14.1,59.6,0,0.51,11,���쐼,10.9,10,,
2015/10/12,10:00:00,12,��,10,16.1,37,0,0.64,12,��,15.9,51,,
2015/10/12,11:00:00,11,���쐼,5.8,16.7,41.5,0,0.68,12,��,13.7,2,,
2015/10/12,12:00:00,12,��,8.3,17.2,38.8,0,0.72,11,���쐼,14.5,39,,
2015/10/12,13:00:00,12,��,6,16.9,45.7,0,0.69,12,��,13.6,7,,
2015/10/12,14:00:00,12,��,3.1,17.4,44.8,0,0.64,12,��,7.5,2,,
2015/10/12,15:00:00,11,���쐼,1.8,16.5,47.6,0,0.53,10,�쐼,6.3,1,,
2015/10/12,16:00:00,9,��쐼,1.9,13.1,63.3,0,0.08,9,��쐼,3.6,59,,
2015/10/12,17:00:00,9,��쐼,3.4,12.9,64.6,0,0.02,9,��쐼,5.9,51,,
2015/10/12,18:00:00,10,�쐼,3.6,12.3,65.1,0,0,10,�쐼,5.8,17,,
2015/10/12,19:00:00,10,�쐼,3.6,12.2,65.2,0,0,10,�쐼,6.5,34,,
2015/10/12,20:00:00,2,�k��,1.1,8.7,82.2,0,0,10,�쐼,5,12,,
2015/10/12,21:00:00,2,�k��,2.3,8.2,83.9,0,0,3,���k��,3.5,20,,
2015/10/12,22:00:00,8,��,1.1,5.8,93.5,0,0,4,��,2.6,17,,
2015/10/12,23:00:00,12,��,2,4.7,97.3,0,0,12,��,3.2,41,,
2015/10/12,0:00:00,12,��,2,5.6,97.8,0,0,12,��,3.2,8,,
2015/10/13,1:00:00,11,���쐼,1.4,5.5,94.8,0,0,10,�쐼,4.3,34,,
2015/10/13,2:00:00,14,�k��,0.4,3.8,96,0,0,16,�k,3.6,3,,
2015/10/13,3:00:00,15,�k�k��,1.7,4.3,93.1,0,0,9,��쐼,3.9,35,,
2015/10/13,4:00:00,10,�쐼,2.6,7.2,86.3,0,0,10,�쐼,4.3,56,,
2015/10/13,5:00:00,14,�k��,0.5,3.8,93,0,0,10,�쐼,4.1,1,,
2015/10/13,6:00:00,10,�쐼,3.2,10.8,72.9,0,0.01,10,�쐼,6,47,,
2015/10/13,7:00:00,10,�쐼,3.8,12.9,62.3,0,0.11,9,��쐼,6.4,39,,
2015/10/13,8:00:00,11,���쐼,4.8,15,52.9,0,0.4,9,��쐼,9.1,23,,
2015/10/13,9:00:00,12,��,3.3,14.7,60.8,0,0.46,10,�쐼,6.6,8,,
2015/10/13,10:00:00,10,�쐼,6.1,15.1,49.1,0,0.66,10,�쐼,9,55,,
2015/10/13,11:00:00,10,�쐼,4.4,16.1,51.6,0,0.53,10,�쐼,9.3,44,,
2015/10/13,12:00:00,10,�쐼,5.6,15.6,48.8,0,0.59,11,���쐼,11.5,29,,
2015/10/13,13:00:00,10,�쐼,5.8,14,47.4,0,0.33,10,�쐼,10.6,57,,
2015/10/13,14:00:00,8,��,1.8,10.1,92.6,1,0.13,10,�쐼,17,13,,
2015/10/13,15:00:00,8,��,2,10.7,77,0,0.35,8,��,4,56,,
2015/10/13,16:00:00,9,��쐼,2.8,10.6,77.2,0,0.11,8,��,5.9,57,,
2015/10/13,17:00:00,12,��,3.5,10.6,61.7,0,0.02,10,�쐼,10.4,35,,
2015/10/13,18:00:00,12,��,6.5,10,50.8,0,0,12,��,12,40,,
2015/10/13,19:00:00,11,���쐼,3.9,7.4,60.1,0,0,11,���쐼,7.8,39,,
2015/10/13,20:00:00,11,���쐼,4,6.2,67.1,0,0,11,���쐼,12.2,13,,
2015/10/13,21:00:00,11,���쐼,4,5.8,64.6,0,0,11,���쐼,8.4,43,,
2015/10/13,22:00:00,11,���쐼,4.6,6.6,55.2,0,0,11,���쐼,9,32,,
2015/10/13,23:00:00,11,���쐼,3.2,3.9,77,0,0,11,���쐼,13,21,,
2015/10/13,0:00:00,11,���쐼,3.5,4.3,67.1,0,0,11,���쐼,5.3,30,,
2015/10/14,1:00:00,15,�k�k��,2.3,4.1,66.8,0,0,11,���쐼,6.9,8,,
2015/10/14,2:00:00,12,��,1.1,-0.9,94.5,0,0,13,���k��,3.6,10,,
2015/10/14,3:00:00,12,��,2,-1.4,97,0,0,12,��,2.8,50,,
2015/10/14,4:00:00,16,�k,1.7,-1.4,98.1,0,0,12,��,3,16,,
2015/10/14,5:00:00,12,��,0.8,-2.4,95.6,0,0,12,��,2.8,33,,
2015/10/14,6:00:00,2,�k��,1.7,-1.7,94.4,0,0.02,2,�k��,3.4,35,,
2015/10/14,7:00:00,13,���k��,0.7,1.5,86.9,0,0.16,11,���쐼,3.2,7,,
2015/10/14,8:00:00,12,��,1,6.6,69.5,0,0.36,2,�k��,7.1,28,,
2015/10/14,9:00:00,12,��,1.8,10.5,48.4,0,0.54,10,�쐼,4.1,43,,
2015/10/14,10:00:00,6,�쓌,3.7,11.1,48.8,0,0.66,5,���쓌,6.6,54,,
2015/10/14,11:00:00,6,�쓌,3.8,12,50.2,0,0.73,6,�쓌,6.2,53,,
2015/10/14,12:00:00,7,��쓌,3.3,12.3,48.3,0,0.74,8,��,5.2,54,,
2015/10/14,13:00:00,8,��,3.7,13.4,41.1,0,0.7,8,��,6.5,41,,
2015/10/14,14:00:00,6,�쓌,1,11.8,55,0,0.32,9,��쐼,4.7,6,,
2015/10/14,15:00:00,12,��,6.4,13.2,40.9,0,0.18,11,���쐼,10.2,48,,
2015/10/14,16:00:00,12,��,3.9,11,52.7,0,0.18,12,��,8.6,2,,
2015/10/14,17:00:00,11,���쐼,2.8,8.4,63.9,0,0.04,11,���쐼,6.1,1,,
2015/10/14,18:00:00,15,�k�k��,1.8,6.2,70.4,0,0,12,��,7.1,11,,
2015/10/14,19:00:00,13,���k��,1.5,4.1,85.2,0,0,13,���k��,4.6,1,,
2015/10/14,20:00:00,13,���k��,2.3,2.2,91.3,0,0,12,��,3.7,34,,
2015/10/14,21:00:00,13,���k��,2,0.6,96.7,0,0,12,��,3.3,14,,
2015/10/14,22:00:00,13,���k��,2.5,0.5,97,0,0,12,��,3.5,50,,
2015/10/14,23:00:00,13,���k��,1.9,-0.3,99.5,0,0,13,���k��,3.9,37,,
2015/10/14,0:00:00,14,�k��,0.5,-0.7,97.8,0,0,12,��,4.1,19,,
2015/10/15,1:00:00,12,��,2,-1.4,99.4,0,0,12,��,3.2,28,,
2015/10/15,2:00:00,13,���k��,2.4,-0.4,99.2,0,0,12,��,4,59,,
2015/10/15,3:00:00,12,��,2.2,-0.6,97.2,0,0,12,��,4,7,,
2015/10/15,4:00:00,12,��,2.7,-1.6,98.1,0,0,12,��,3.9,21,,
2015/10/15,5:00:00,11,���쐼,2.3,-2.2,98.6,0,0,12,��,3.5,32,,
2015/10/15,6:00:00,12,��,3.1,-1.7,99.7,0,0.01,12,��,3.9,49,,
2015/10/15,7:00:00,12,��,2.5,1,94.8,0,0.16,12,��,3.8,3,,
2015/10/15,8:00:00,12,��,1.2,6.2,77.5,0,0.34,12,��,2.6,12,,
2015/10/15,9:00:00,14,�k��,0.4,11.6,71.7,0,0.52,11,���쐼,1.8,24,,
2015/10/15,10:00:00,16,�k,1.8,12,55,0,0.46,15,�k�k��,4.5,49,,
2015/10/15,11:00:00,15,�k�k��,2.6,13.4,45.9,0,0.54,15,�k�k��,6.6,48,,
2015/10/15,12:00:00,5,���쓌,1.4,12.9,54,0,0.49,14,�k��,6,4,,
2015/10/15,13:00:00,14,�k��,2.8,15.3,38.7,0,0.7,14,�k��,7.4,31,,
2015/10/15,14:00:00,16,�k,4.3,14.9,38.8,0,0.59,13,���k��,7.4,50,,
2015/10/15,15:00:00,15,�k�k��,2.9,14.5,40.8,0,0.42,14,�k��,7.6,54,,
2015/10/15,16:00:00,16,�k,2.1,13,44.9,0,0.22,13,���k��,7.6,8,,
2015/10/15,17:00:00,10,�쐼,2.5,8.8,70,0,0.04,15,�k�k��,4.9,3,,
2015/10/15,18:00:00,11,���쐼,0.7,4.5,82.3,0,0,9,��쐼,3.4,2,,
2015/10/15,19:00:00,12,��,1.7,1.6,95,0,0,12,��,2.5,57,,
2015/10/15,20:00:00,13,���k��,1,2.2,93.4,0,0,13,���k��,4,42,,
2015/10/15,21:00:00,13,���k��,2.1,2.4,92.3,0,0,12,��,4.8,30,,
2015/10/15,22:00:00,13,���k��,2.5,2,91.3,0,0,13,���k��,4.2,50,,
2015/10/15,23:00:00,12,��,3.2,1.8,93.4,0,0,12,��,4.3,57,,
2015/10/15,0:00:00,12,��,2.8,1.2,96.5,0,0,13,���k��,4.7,2,,
2015/10/16,1:00:00,12,��,2.6,0.9,95.4,0,0,12,��,3.7,37,,
2015/10/16,2:00:00,12,��,1.7,-0.1,96.7,0,0,13,���k��,3.8,10,,
2015/10/16,3:00:00,13,���k��,1.8,-0.1,95.9,0,0,12,��,3,11,,
2015/10/16,4:00:00,13,���k��,1.8,-1.4,97.5,0,0,13,���k��,3.1,48,,
2015/10/16,5:00:00,13,���k��,2,-0.9,96.6,0,0,12,��,3,36,,
2015/10/16,6:00:00,13,���k��,1.8,-0.7,97.6,0,0.01,13,���k��,2.8,16,,
2015/10/16,7:00:00,12,��,2,2.7,86.8,0,0.14,12,��,2.7,48,,
2015/10/16,8:00:00,2,�É�,0.1,8.1,74.7,0,0.33,13,���k��,6.9,35,,
2015/10/16,9:00:00,4,��,0.7,11.4,69.9,0,0.51,4,��,1.8,38,,
2015/10/16,10:00:00,6,�쓌,2.4,12.3,56.8,0,0.63,6,�쓌,3.2,54,,
2015/10/16,11:00:00,6,�쓌,2.7,12.5,63.1,0,0.71,6,�쓌,4.4,58,,
2015/10/16,12:00:00,6,�쓌,2.6,12.4,59.9,0,0.72,6,�쓌,4.7,46,,
2015/10/16,13:00:00,6,�쓌,2.5,12.6,66.1,0,0.66,6,�쓌,4.8,11,,
2015/10/16,14:00:00,6,�쓌,2.5,12.4,75.3,0,0.56,5,���쓌,4.9,49,,
2015/10/16,15:00:00,5,���쓌,1.7,12.4,76.4,0,0.4,6,�쓌,3.9,2,,
2015/10/16,16:00:00,5,���쓌,0.7,12.1,78.9,0,0.2,5,���쓌,2.6,15,,
2015/10/16,17:00:00,11,���쐼,0.9,6.8,95.2,0,0.04,10,�쐼,1.5,45,,
2015/10/16,18:00:00,12,��,1.5,5.1,98.7,0,0,12,��,1.9,51,,
2015/10/16,19:00:00,12,��,1.7,3.9,99.7,0,0,12,��,2.4,29,,
2015/10/16,20:00:00,12,��,2,4,99.9,0,0,12,��,3.4,32,,
2015/10/16,21:00:00,13,���k��,1.2,2.9,99.7,0,0,12,��,3,29,,
2015/10/16,22:00:00,14,�k��,2,3.6,100,0,0,12,��,3.8,45,,
2015/10/16,23:00:00,14,�k��,1.9,3.1,100,0,0,13,���k��,3.5,22,,
2015/10/16,0:00:00,12,��,3.1,2.9,100,0,0,13,���k��,4.3,54,,
2015/10/17,1:00:00,13,���k��,1.2,2.3,98.6,0,0,13,���k��,4.2,12,,